EW3302 Weather Reports


Display with metric or nautical units.
time (UTC)temp
F
wind
direction
speed
MPH
gust
MPH
rain 1hr
in
rain 24hr
in
rain mn
in
humidity
%
barometer
mb
20260505055517 39 270 7.0 11.0 0.00 0.03 0.03 71 1005.1
20260505054517 38 270 7.0 12.0 0.00 0.03 0.03 71 1005.1
20260505053517 38 270 8.0 15.0 0.00 0.03 0.03 71 1005.1
20260505052517 38 270 7.0 13.0 0.00 0.03 0.03 72 1005.0
20260505051517 38 293 6.0 13.0 0.00 0.03 0.03 73 1005.0
20260505050517 37 270 7.0 15.0 0.00 0.03 0.03 73 1004.7
20260505041517 35 270 5.0 12.0 0.00 0.03 0.03 78 1004.5
20260505040537 35 270 6.0 11.0 0.00 0.03 0.03 79 1004.4
20260505035517 35 270 6.0 10.0 0.00 0.03 0.03 80 1004.3
20260505034517 35 270 5.0 10.0 0.00 0.03 0.03 81 1004.1
20260505033517 35 293 4.0 9.0 0.00 0.03 0.03 82 1004.1
20260505032517 35 270 4.0 10.0 0.00 0.03 0.03 84 1004.0
20260505031517 35 270 4.0 9.0 0.00 0.03 0.03 86 1004.0
20260505030517 35 270 5.0 10.0 0.00 0.03 0.03 88 1003.9
20260505025537 35 270 4.0 10.0 0.00 0.03 0.03 89 1003.7
20260505024537 35 270 5.0 9.0 0.00 0.03 0.03 90 1003.6
20260505023517 35 270 4.0 9.0 0.00 0.03 0.03 90 1003.4
20260505022517 35 270 4.0 9.0 0.00 0.03 0.03 91 1003.4
20260505021557 35 270 5.0 9.0 0.00 0.03 0.03 91 1003.3
20260505020537 35 293 3.0 7.0 0.00 0.03 0.03 91 1003.2
20260505015537 35 293 1.0 4.0 0.00 0.03 0.03 90 1003.1
20260505014517 35 270 2.0 4.0 0.00 0.03 0.03 91 1003.0
20260505013537 36 248 3.0 7.0 0.00 0.03 0.03 91 1003.0
20260505012517 36 270 3.0 6.0 0.00 0.03 0.03 91 1002.9
20260505011517 36 270 2.0 4.0 0.00 0.03 0.03 92 1002.9
20260505010517 36 270 3.0 6.0 0.00 0.03 0.03 92 1002.9
20260505005517 36 293 2.0 5.0 0.00 0.03 0.03 92 1002.8
20260505004537 36 270 2.0 5.0 0.00 0.03 0.03 92 1002.7
20260505003517 36 315 1.0 5.0 0.00 0.03 0.03 91 1002.6
20260505002517 36 270 2.0 5.0 0.00 0.03 0.03 91 1002.7
20260505001517 37 248 2.0 6.0 0.00 0.03 0.03 92 1002.7
20260505000517 36 270 3.0 7.0 0.00 0.03 0.03 92 1002.5
20260504235517 36 293 4.0 6.0 0.00 0.03 0.03 91 1002.4
20260504234537 36 270 5.0 8.0 0.01 0.03 0.03 91 1002.5
20260504233517 37 248 4.0 7.0 0.01 0.03 0.03 91 1002.5
20260504232517 37 270 4.0 9.0 0.02 0.03 0.03 90 1002.3
20260504231537 37 315 3.0 11.0 0.02 0.03 0.03 90 1001.9
20260504230517 38 293 4.0 7.0 0.02 0.03 0.03 90 1001.8
20260504225516 38 293 4.0 8.0 0.03 0.03 0.03 89 1001.8
20260504224517 39 293 6.0 12.0 0.02 0.02 0.02 88 1002.0
20260504223537 39 293 6.0 13.0 0.02 0.02 0.02 88 1002.0
20260504222517 40 270 6.0 12.0 0.01 0.01 0.01 87 1001.8
20260504221517 40 270 6.0 11.0 0.01 0.01 0.01 87 1001.6
20260504220517 41 293 8.0 19.0 0.01 0.01 0.01 85 1001.3
20260504215516 41 270 7.0 14.0 0.00 0.00 0.00 84 1001.4
20260504214516 41 315 6.0 12.0 0.00 0.00 0.00 83 1001.0
20260504213516 42 315 6.0 14.0 0.00 0.00 0.00 81 1000.9
20260504212516 42 270 5.0 12.0 0.00 0.00 0.00 81 1000.7
20260504211516 43 293 7.0 16.0 0.00 0.00 0.00 79 1000.7
20260504210516 44 270 6.0 15.0 0.00 0.00 0.00 77 1000.7
20260504205516 45 315 8.0 15.0 0.00 0.00 0.00 74 1000.0
20260504204516 47 293 8.0 17.0 0.00 0.00 0.00 66 1000.3
20260504203516 51 270 9.0 18.0 0.00 0.00 0.00 50 1000.0
20260504202516 52 225 5.0 9.0 0.00 0.00 0.00 47 999.6
20260504201536 52 225 4.0 8.0 0.00 0.00 0.00 44 999.9
20260504200516 52 225 4.0 9.0 0.00 0.00 0.00 43 999.8
20260504195516 52 203 3.0 5.0 0.00 0.00 0.00 42 999.7
20260504194516 53 225 2.0 4.0 0.00 0.00 0.00 40 999.7
20260504193536 53 225 5.0 10.0 0.00 0.00 0.00 39 999.9
20260504192516 53 248 5.0 11.0 0.00 0.00 0.00 38 1000.0
20260504191516 53 248 4.0 14.0 0.00 0.00 0.00 38 999.9
20260504190516 54 248 6.0 10.0 0.00 0.00 0.00 36 1000.0
20260504185556 54 225 5.0 10.0 0.00 0.00 0.00 37 1000.2
20260504184516 53 225 4.0 16.0 0.00 0.00 0.00 36 1000.2
20260504183516 54 225 5.0 11.0 0.00 0.00 0.00 34 1000.4
20260504182516 54 248 3.0 9.0 0.00 0.00 0.00 33 1000.3
20260504181556 54 225 3.0 6.0 0.00 0.00 0.00 33 1000.3
20260504180516 54 225 3.0 6.0 0.00 0.00 0.00 32 1000.2
20260504175516 55 203 4.0 7.0 0.00 0.00 0.00 31 1000.2
20260504174516 55 225 3.0 5.0 0.00 0.00 0.00 30 1000.2
20260504173516 55 225 4.0 7.0 0.00 0.00 0.00 27 1000.2
20260504172516 56 248 4.0 9.0 0.00 0.00 0.00 27 1000.2
20260504171516 58 248 7.0 13.0 0.00 0.00 0.00 24 1000.3
20260504170536 58 225 7.0 13.0 0.00 0.00 0.00 24 1000.2
20260504150516 59 248 5.0 14.0 0.00 0.00 0.00 32 999.9
20260504140516 58 225 6.0 13.0 0.00 0.00 0.00 41 999.9
20260504130536 56 248 6.0 17.0 0.00 0.00 0.00 54 1000.4
20260504110516 55 0 6.0 13.0 0.00 0.00 0.00 65 1000.5
20260504100536 52 203 3.0 6.0 0.00 0.00 0.00 75 1001.0
20260504081516 49 180 5.0 10.0 0.00 0.00 0.00 77 1001.7
20260504080516 49 180 4.0 8.0 0.00 0.00 0.00 78 1001.8